Location: Bakov nad Jizerou
(50.4784°N, 14.9394°E)
Time: 12:46:57
(UTC+00:00)

SL-8 R/B - Pass Details

Date: 26 October 2021
Orbit: 656 x 667 km, 48.4° (Epoch: 29 November)

Event Time Altitude Azimuth Distance (km) Brightness Sun altitude
Rises 17:06:53 0° 264° (W) 2,982 9.1 -13.3°
Reaches altitude 10° 17:09:14 10° 262° (W) 2,072 7.7 -13.7°
Maximum altitude 17:13:59 71° 179° (S) 701 3.8 -14.5°
Enters shadow 17:16:51 24° 100° (E) 1,367 4.7 -14.9°
